Regional Weather Roundup
Issued by NWS

Home | Current Version | Previous Version | Graphics & Text | Print | Product List | Glossary On
Versions: 1 2 3 4 5 6 7 8 9 10 11 12 13 14 15 16 17 18 19 20 21 22 23 24 25 26 27
000
ASUS45 KTFX 251110
RWRMT
MONTANA REGIONAL WEATHER ROUNDUP
NATIONAL WEATHER SERVICE GREAT FALLS MT
500 AM MDT TUE JUL 25 2017

NOTE: "FAIR" INDICATES FEW OR NO CLOUDS BELOW 12000 FEET WITH NO
SIGNIFICANT WEATHER AND/OR OBSTRUCTIONS TO VISIBILITY.

MTZ001>007-043-251200-
WEST OF THE DIVIDE

CITY           SKY/WX    TMP DP  RH WIND       PRES   REMARKS
KALISPELL      CLEAR     62  40  44 N13       30.01R
MISSOULA       PTCLDY    54  34  46 N3        30.02R
BUTTE          PTCLDY    51  37  58 SE6       30.13S
MULLAN PASS    CLEAR     58  26  29 CALM      30.14F
ANACONDA         N/A     54  32  43 CALM      30.11R
DEER LODGE       N/A     54  37  54 NW5       30.12R
EUREKA           N/A     46  36  66 MISG      30.05R
HAMILTON         N/A     54  41  62 SE3       30.03R
LIBBY            N/A     46  36  66 CALM      30.02R
PLAINS           N/A     50  36  58 CALM      30.01
$$

MTZ008-052>055-251200-
SOUTHWEST MONTANA

CITY           SKY/WX    TMP DP  RH WIND       PRES   REMARKS
BOZEMAN        PTCLDY    57  48  72 N7        30.05S
DILLON         CLOUDY    58  46  64 VRB3      30.08F
W YELLOWSTONE  CLOUDY    43  41  93 S7        30.22R
ENNIS          CLEAR     61  39  44 E7        30.14S
THREE FORKS      N/A     60  44  55 N2        30.04R
TWIN BRIDGES     N/A     56  47  71 NE1       30.06
$$

MTZ009-010-012-014-046-048-049-054-251200-
EAST SLOPES AND CENTRAL MONTANA

CITY           SKY/WX    TMP DP  RH WIND       PRES   REMARKS
CUT BANK       CLEAR     44  40  85 W12       30.16R
GREAT FALLS    PTCLDY    48  36  63 NW6       30.16R
MALMSTROM AFB  CLOUDY    54  39  57 NW5       30.15R
HELENA         PTCLDY    62  36  37 W10       30.13R
CHOTEAU          N/A     48  41  76 NW8       30.18S
$$

MTZ011-013-016-021-045-047-050-051-251200-
NORTH CENTRAL MONTANA

CITY           SKY/WX    TMP DP  RH WIND       PRES   REMARKS
HAVRE          PTCLDY    49  39  68 SW6       30.10R
LEWISTOWN      PTCLDY    55  37  50 N5        30.13R
N BAR RANCH    MOCLDY    57  34  41 N14       30.16R
CHINOOK          N/A     54  43  66 W3        30.08R
$$

MTZ017>020-022>027-061-062-251200-
NORTHEAST MONTANA

CITY           SKY/WX    TMP DP  RH WIND       PRES   REMARKS
GLASGOW        CLOUDY    58  46  64 N12       30.01R THUNDER
JORDAN           N/A     63  39  41 N12       30.02R
SIDNEY         PTCLDY    66  45  46 N9        29.97R
WOLF POINT     CLOUDY    63  48  58 CALM      30.00S
MALTA          CLOUDY    61  41  48 W5        30.06R
PLENTYWOOD       N/A     59  43  55 NW13      29.98S
POPLAR           N/A     63  45  51 N10       30.00S
$$

MTZ028>42-056>058-251200-
SOUTHCENTRAL AND SOUTHEAST MONTANA

CITY           SKY/WX    TMP DP  RH WIND       PRES   REMARKS
BAKER          CLOUDY    69  50  50 NE18      29.92R
BILLINGS       PTCLDY    66  44  45 N13       30.00R
LIVINGSTON     CLEAR     58  42  55 MISG      30.07R
MILES CITY     CLEAR     69  44  40 NE17      29.92R
BIG TIMBER     CLEAR     64  45  48 N8        30.11R
FORSYTH          N/A     68  45  42 N8        29.94R
LAUREL           N/A     66  42  41 NW7       30.01R
ROUNDUP          N/A     63  32  31 N15       29.97R
$$

REGIONAL REPORTS...DAKOTAS

CITY           SKY/WX    TMP DP  RH WIND       PRES   REMARKS
WILLISTON      CLOUDY    64  46  52 N7        29.98R
MINOT          CLOUDY    64  55  72 W7        29.89F
DICKINSON      CLOUDY    65  52  62 N5        29.95R
BEACH          DRIZZLE   59  50  72 NE9       29.98R
CROSBY           N/A     55  43  62 NW8       29.95S
TIOGA            N/A     61  48  63 VRB3G12   29.97R
WATFORD CITY     N/A     61  57  88 CALM      29.95S
BISMARCK       CLEAR     65  64  97 E5        29.87R
GRAND FORKS    CLOUDY    65  65 100 CALM      29.86R
FARGO          PTCLDY    68  64  87 SE13G21   29.85S
BUFFALO SD       N/A     72  61  68 NE12      29.85F
RAPID CITY     CLEAR     69  60  73 N14       29.88R
$$

REGIONAL REPORTS...WYOMING/IDAHO/WASHINGTON

CITY           SKY/WX    TMP DP  RH WIND       PRES   REMARKS
GILLETTE       CLEAR     61  52  72 NW5       29.97S
SHERIDAN       CLEAR     63  50  62 CALM      29.98R
BUFFALO WY     CLEAR     68  45  43 NW6       30.06R
CODY           CLOUDY    70  40  33 CALM      30.08R
YELLOWSTONE LA   N/A     43  42  97 CALM      30.29S
IDAHO FALLS    CLOUDY    55  52  89 CALM      30.06R
BOISE          CLOUDY    76  49  38 N8        29.90F
SPOKANE        PTCLDY    64  39  39 NE3       29.98S
$$

REGIONAL REPORTS...ALBERTA

CITY           SKY/WX    TMP DP  RH WIND       PRES   REMARKS
EDMONTON       CLEAR     46  46 100 W6        30.01R
CALGARY        PTCLDY    48  41  76 CALM      30.12S
LETHBRIDGE     CLEAR     43  39  87 SW6       30.13S
MEDICINE HAT   CLEAR     48  43  81 SW5       30.09R
WATERTON GATE    N/A     36  36 100 CALM        N/A
MILK RIVER       N/A     43  41  93 NW8         N/A
$$

REGIONAL REPORTS...SASKATCHEWAN

CITY           SKY/WX    TMP DP  RH WIND       PRES   REMARKS
SWIFT CURRENT  CLEAR     50  45  81 W16G22    29.99R
REGINA         MOCLDY    57  48  72 W17G24    29.89R
SASKATOON      MOCLDY    57  55  94 W18G26    29.82R
CYPRESS HILLS    N/A     48  39  71 NW9G21      N/A
VAL MARIE        N/A     45  36  70 SW5         N/A
ROCKGLEN         N/A     52  43  71 NW9         N/A
$$




USA.gov is the U.S. government's official web portal to all federal, state and local government web resources and services.